Time,TemperatureF,DewpointF,PressureIn,WindDirection,WindDirectionDegrees,WindSpeedMPH,WindSpeedGustMPH,Humidity,HourlyPrecipIn,Conditions,Clouds,dailyrainin,SoftwareType,DateUTC
2013-03-18 00:00:00,33.4,29.7,29.77,East,96,3.0,3.0,86,0.00,,,0.46,Wunderground v.1.15,2013-03-18 05:00:00,
2013-03-18 00:06:00,33.5,29.8,29.77,East,101,2.0,9.0,86,0.00,,,0.00,Wunderground v.1.15,2013-03-18 05:06:00,
2013-03-18 00:12:00,33.5,29.8,29.77,East,95,2.0,9.0,86,0.00,,,0.00,Wunderground v.1.15,2013-03-18 05:12:00,
2013-03-18 00:18:00,33.6,29.9,29.77,East,90,2.0,9.0,86,0.00,,,0.00,Wunderground v.1.15,2013-03-18 05:18:00,
2013-03-18 00:24:00,33.7,30.0,29.76,ESE,102,2.0,9.0,86,0.00,,,0.00,Wunderground v.1.15,2013-03-18 05:24:00,
2013-03-18 00:30:00,33.7,30.0,29.76,East,97,2.0,9.0,86,0.00,,,0.00,Wunderground v.1.15,2013-03-18 05:30:00,
2013-03-18 00:36:00,33.8,30.1,29.76,East,92,2.0,9.0,86,0.00,,,0.00,Wunderground v.1.15,2013-03-18 05:36:00,
2013-03-18 00:42:00,33.8,30.1,29.76,East,82,2.0,9.0,86,0.00,,,0.00,Wunderground v.1.15,2013-03-18 05:42:00,
2013-03-18 00:48:00,33.8,30.1,29.76,East,88,2.0,9.0,86,0.00,,,0.00,Wunderground v.1.15,2013-03-18 05:48:00,
2013-03-18 00:54:00,33.8,30.1,29.76,East,87,2.0,9.0,86,0.00,,,0.01,Wunderground v.1.15,2013-03-18 05:54:00,
2013-03-18 01:00:00,33.8,30.1,29.76,East,90,2.0,2.0,86,0.00,,,0.01,Wunderground v.1.15,2013-03-18 06:00:00,
2013-03-18 01:06:00,33.9,30.2,29.76,East,95,2.0,4.0,86,0.00,,,0.01,Wunderground v.1.15,2013-03-18 06:06:00,
2013-03-18 01:12:00,33.9,30.4,29.76,East,100,2.0,3.0,87,0.00,,,0.01,Wunderground v.1.15,2013-03-18 06:12:00,
2013-03-18 01:18:00,33.9,30.4,29.76,East,99,2.0,4.0,87,0.00,,,0.01,Wunderground v.1.15,2013-03-18 06:18:00,
2013-03-18 01:24:00,33.9,30.4,29.75,East,99,1.0,3.0,87,0.00,,,0.01,Wunderground v.1.15,2013-03-18 06:24:00,
2013-03-18 01:30:00,33.9,30.4,29.75,East,95,2.0,2.0,87,0.00,,,0.01,Wunderground v.1.15,2013-03-18 06:30:00,
2013-03-18 01:36:00,33.9,30.4,29.75,East,88,1.0,3.0,87,0.00,,,0.01,Wunderground v.1.15,2013-03-18 06:36:00,
2013-03-18 01:42:00,33.9,30.4,29.75,East,88,1.0,1.0,87,0.00,,,0.01,Wunderground v.1.15,2013-03-18 06:42:00,
2013-03-18 01:48:00,33.9,30.4,29.75,ESE,111,1.0,1.0,87,0.00,,,0.01,Wunderground v.1.15,2013-03-18 06:48:00,
2013-03-18 01:54:00,33.9,30.4,29.75,East,96,1.0,1.0,87,0.00,,,0.01,Wunderground v.1.15,2013-03-18 06:54:00,
2013-03-18 02:00:00,33.9,30.4,29.75,East,92,1.0,1.0,87,0.00,,,0.01,Wunderground v.1.15,2013-03-18 07:00:00,
2013-03-18 02:06:00,33.9,30.4,29.76,East,92,1.0,5.0,87,0.00,,,0.01,Wunderground v.1.15,2013-03-18 07:06:00,
2013-03-18 02:12:00,33.9,30.4,29.76,East,92,1.0,5.0,87,0.00,,,0.01,Wunderground v.1.15,2013-03-18 07:12:00,
2013-03-18 02:18:00,33.9,30.4,29.76,East,91,0.0,5.0,87,0.00,,,0.02,Wunderground v.1.15,2013-03-18 07:18:00,
2013-03-18 02:24:00,33.9,30.4,29.76,East,91,0.0,5.0,87,0.00,,,0.02,Wunderground v.1.15,2013-03-18 07:24:00,
2013-03-18 02:30:00,33.9,30.4,29.76,East,92,0.0,5.0,87,0.00,,,0.02,Wunderground v.1.15,2013-03-18 07:30:00,
2013-03-18 02:36:00,34.0,30.5,29.75,East,92,0.0,5.0,87,0.00,,,0.02,Wunderground v.1.15,2013-03-18 07:36:00,
2013-03-18 02:42:00,33.9,30.4,29.75,East,92,0.0,5.0,87,0.00,,,0.02,Wunderground v.1.15,2013-03-18 07:42:00,
2013-03-18 02:48:00,33.9,30.4,29.75,East,92,0.0,5.0,87,0.00,,,0.02,Wunderground v.1.15,2013-03-18 07:48:00,
2013-03-18 02:54:00,34.0,30.5,29.75,East,91,0.0,5.0,87,0.00,,,0.02,Wunderground v.1.15,2013-03-18 07:54:00,
2013-03-18 03:00:00,34.0,30.5,29.75,East,91,0.0,5.0,87,0.00,,,0.02,Wunderground v.1.15,2013-03-18 08:00:00,
2013-03-18 03:06:00,34.0,30.5,29.75,East,92,0.0,5.0,87,0.00,,,0.02,Wunderground v.1.15,2013-03-18 08:06:00,
2013-03-18 03:12:00,34.0,30.5,29.75,East,92,0.0,5.0,87,0.00,,,0.02,Wunderground v.1.15,2013-03-18 08:12:00,
2013-03-18 03:18:00,34.0,30.5,29.75,East,91,1.0,5.0,87,0.00,,,0.02,Wunderground v.1.15,2013-03-18 08:18:00,
2013-03-18 03:24:00,34.0,30.5,29.75,East,92,1.0,5.0,87,0.00,,,0.03,Wunderground v.1.15,2013-03-18 08:24:00,
2013-03-18 03:30:00,34.0,30.5,29.75,East,91,0.0,5.0,87,0.00,,,0.03,Wunderground v.1.15,2013-03-18 08:30:00,
2013-03-18 03:36:00,34.0,30.5,29.75,East,91,0.0,5.0,87,0.00,,,0.03,Wunderground v.1.15,2013-03-18 08:36:00,
2013-03-18 03:42:00,34.0,30.5,29.74,East,92,0.0,5.0,87,0.00,,,0.03,Wunderground v.1.15,2013-03-18 08:42:00,
2013-03-18 03:48:00,34.0,30.5,29.74,East,91,0.0,5.0,87,0.00,,,0.03,Wunderground v.1.15,2013-03-18 08:48:00,
2013-03-18 03:54:00,34.0,30.5,29.74,East,92,0.0,5.0,87,0.00,,,0.04,Wunderground v.1.15,2013-03-18 08:54:00,
2013-03-18 04:00:00,34.0,30.5,29.74,East,91,0.0,0.0,87,0.00,,,0.04,Wunderground v.1.15,2013-03-18 09:00:00,
2013-03-18 04:06:00,33.9,30.4,29.74,East,91,0.0,0.0,87,0.00,,,0.04,Wunderground v.1.15,2013-03-18 09:06:00,
2013-03-18 04:12:00,33.9,30.4,29.74,East,92,0.0,0.0,87,0.00,,,0.04,Wunderground v.1.15,2013-03-18 09:12:00,
2013-03-18 04:18:00,33.9,30.4,29.74,East,91,0.0,0.0,87,0.00,,,0.04,Wunderground v.1.15,2013-03-18 09:18:00,
2013-03-18 04:24:00,33.9,30.4,29.74,East,92,1.0,3.0,87,0.00,,,0.04,Wunderground v.1.15,2013-03-18 09:24:00,
2013-03-18 04:30:00,33.9,30.4,29.74,East,92,2.0,2.0,87,0.00,,,0.04,Wunderground v.1.15,2013-03-18 09:30:00,
2013-03-18 04:36:00,33.9,30.4,29.74,East,92,1.0,2.0,87,0.00,,,0.04,Wunderground v.1.15,2013-03-18 09:36:00,
2013-03-18 04:42:00,33.9,30.4,29.74,East,92,0.0,0.0,87,0.00,,,0.04,Wunderground v.1.15,2013-03-18 09:42:00,
2013-03-18 04:48:00,33.9,30.4,29.73,East,91,0.0,0.0,87,0.00,,,0.04,Wunderground v.1.15,2013-03-18 09:48:00,
2013-03-18 04:54:00,33.9,30.4,29.72,East,92,0.0,0.0,87,0.00,,,0.04,Wunderground v.1.15,2013-03-18 09:54:00,
2013-03-18 05:00:00,33.9,30.4,29.71,East,91,0.0,2.0,87,0.00,,,0.04,Wunderground v.1.15,2013-03-18 10:00:00,
2013-03-18 05:06:00,33.8,30.3,29.72,East,92,0.0,2.0,87,0.00,,,0.04,Wunderground v.1.15,2013-03-18 10:06:00,
2013-03-18 05:12:00,33.8,30.3,29.72,East,92,0.0,0.0,87,0.00,,,0.04,Wunderground v.1.15,2013-03-18 10:12:00,
2013-03-18 05:18:00,33.8,30.6,29.73,East,91,0.0,0.0,88,0.00,,,0.04,Wunderground v.1.15,2013-03-18 10:18:00,
2013-03-18 05:24:00,33.8,30.6,29.73,East,92,0.0,0.0,88,0.00,,,0.04,Wunderground v.1.15,2013-03-18 10:24:00,
2013-03-18 05:30:00,33.8,30.6,29.73,East,92,0.0,0.0,88,0.00,,,0.04,Wunderground v.1.15,2013-03-18 10:30:00,
2013-03-18 05:36:00,33.8,30.6,29.73,East,92,0.0,0.0,88,0.00,,,0.04,Wunderground v.1.15,2013-03-18 10:36:00,
2013-03-18 05:42:00,33.8,30.3,29.73,East,92,0.0,0.0,87,0.00,,,0.04,Wunderground v.1.15,2013-03-18 10:42:00,
2013-03-18 05:48:00,33.8,30.3,29.73,East,92,0.0,0.0,87,0.00,,,0.04,Wunderground v.1.15,2013-03-18 10:48:00,
2013-03-18 05:54:00,33.8,30.6,29.73,East,91,0.0,0.0,88,0.00,,,0.04,Wunderground v.1.15,2013-03-18 10:54:00,
2013-03-18 06:00:00,33.8,30.6,29.73,East,91,0.0,0.0,88,0.00,,,0.04,Wunderground v.1.15,2013-03-18 11:00:00,
2013-03-18 06:06:00,33.9,30.7,29.74,East,92,0.0,0.0,88,0.00,,,0.04,Wunderground v.1.15,2013-03-18 11:06:00,
2013-03-18 06:12:00,33.9,30.7,29.74,East,91,0.0,0.0,88,0.00,,,0.05,Wunderground v.1.15,2013-03-18 11:12:00,
2013-03-18 06:18:00,33.9,30.7,29.74,East,92,0.0,2.0,88,0.00,,,0.05,Wunderground v.1.15,2013-03-18 11:18:00,
2013-03-18 06:24:00,33.9,30.7,29.74,East,92,0.0,0.0,88,0.00,,,0.05,Wunderground v.1.15,2013-03-18 11:24:00,
2013-03-18 06:30:00,33.9,30.7,29.74,East,92,0.0,0.0,88,0.00,,,0.05,Wunderground v.1.15,2013-03-18 11:30:00,
2013-03-18 06:36:00,33.9,30.7,29.74,East,92,0.0,0.0,88,0.00,,,0.05,Wunderground v.1.15,2013-03-18 11:36:00,
2013-03-18 06:42:00,33.9,30.7,29.74,East,92,0.0,0.0,88,0.00,,,0.05,Wunderground v.1.15,2013-03-18 11:42:00,
2013-03-18 06:48:00,33.9,30.7,29.75,East,92,0.0,2.0,88,0.00,,,0.05,Wunderground v.1.15,2013-03-18 11:48:00,
2013-03-18 06:54:00,34.0,30.8,29.75,East,91,0.0,0.0,88,0.00,,,0.05,Wunderground v.1.15,2013-03-18 11:54:00,
2013-03-18 07:00:00,34.0,30.8,29.76,East,92,1.0,1.0,88,0.00,,,0.05,Wunderground v.1.15,2013-03-18 12:00:00,
2013-03-18 07:08:00,34.0,30.8,29.75,East,92,1.0,1.0,88,0.00,,,0.05,Wunderground v.1.15,2013-03-18 12:08:00,
2013-03-18 07:14:00,34.1,30.9,29.75,East,92,0.0,1.0,88,0.00,,,0.05,Wunderground v.1.15,2013-03-18 12:14:00,
2013-03-18 07:20:00,34.1,30.9,29.75,East,92,0.0,0.0,88,0.00,,,0.05,Wunderground v.1.15,2013-03-18 12:20:00,
2013-03-18 07:26:00,34.1,30.9,29.76,East,92,1.0,2.0,88,0.00,,,0.05,Wunderground v.1.15,2013-03-18 12:26:00,
2013-03-18 07:32:00,34.1,30.9,29.76,East,92,1.0,1.0,88,0.00,,,0.05,Wunderground v.1.15,2013-03-18 12:32:00,
2013-03-18 07:38:00,34.1,30.9,29.75,East,92,0.0,1.0,88,0.00,,,0.05,Wunderground v.1.15,2013-03-18 12:38:00,
2013-03-18 07:44:00,34.1,30.9,29.75,East,90,1.0,4.0,88,0.00,,,0.05,Wunderground v.1.15,2013-03-18 12:44:00,
2013-03-18 07:50:00,34.1,30.9,29.75,East,90,2.0,2.0,88,0.00,,,0.05,Wunderground v.1.15,2013-03-18 12:50:00,
2013-03-18 07:56:00,34.1,30.9,29.75,East,90,2.0,3.0,88,0.00,,,0.05,Wunderground v.1.15,2013-03-18 12:56:00,
2013-03-18 08:02:00,34.2,31.0,29.75,East,89,1.0,2.0,88,0.00,,,0.05,Wunderground v.1.15,2013-03-18 13:02:00,
2013-03-18 08:08:00,34.3,31.1,29.75,East,87,2.0,5.0,88,0.00,,,0.05,Wunderground v.1.15,2013-03-18 13:08:00,
2013-03-18 08:14:00,34.3,31.1,29.75,East,84,2.0,4.0,88,0.00,,,0.06,Wunderground v.1.15,2013-03-18 13:14:00,
2013-03-18 08:20:00,34.4,31.5,29.76,ENE,76,2.0,2.0,89,0.00,,,0.06,Wunderground v.1.15,2013-03-18 13:20:00,
2013-03-18 08:26:00,34.4,31.5,29.75,ENE,74,2.0,3.0,89,0.00,,,0.06,Wunderground v.1.15,2013-03-18 13:26:00,
2013-03-18 08:32:00,34.5,31.6,29.75,NE,53,2.0,5.0,89,0.00,,,0.06,Wunderground v.1.15,2013-03-18 13:32:00,
2013-03-18 08:38:00,34.6,31.7,29.75,NW,321,3.0,5.0,89,0.00,,,0.06,Wunderground v.1.15,2013-03-18 13:38:00,
2013-03-18 08:44:00,34.8,31.9,29.76,WSW,254,3.0,6.0,89,0.00,,,0.06,Wunderground v.1.15,2013-03-18 13:44:00,
2013-03-18 08:50:00,34.8,31.9,29.76,West,281,4.0,4.0,89,0.00,,,0.06,Wunderground v.1.15,2013-03-18 13:50:00,
2013-03-18 08:56:00,34.9,32.0,29.76,NW,314,4.0,6.0,89,0.00,,,0.06,Wunderground v.1.15,2013-03-18 13:56:00,
2013-03-18 09:02:00,34.9,32.0,29.77,WNW,283,5.0,5.0,89,0.00,,,0.06,Wunderground v.1.15,2013-03-18 14:02:00,
2013-03-18 09:08:00,35.0,32.1,29.76,WNW,288,5.0,6.0,89,0.00,,,0.06,Wunderground v.1.15,2013-03-18 14:08:00,
2013-03-18 09:14:00,35.0,32.1,29.77,NW,304,5.0,6.0,89,0.00,,,0.06,Wunderground v.1.15,2013-03-18 14:14:00,
2013-03-18 09:20:00,35.1,32.2,29.77,West,261,5.0,5.0,89,0.00,,,0.07,Wunderground v.1.15,2013-03-18 14:20:00,
2013-03-18 09:26:00,35.3,32.4,29.78,WNW,300,5.0,5.0,89,0.00,,,0.07,Wunderground v.1.15,2013-03-18 14:26:00,
2013-03-18 09:32:00,35.3,32.4,29.77,WNW,295,5.0,5.0,89,0.00,,,0.07,Wunderground v.1.15,2013-03-18 14:32:00,
2013-03-18 09:38:00,35.3,32.4,29.78,NW,311,5.0,7.0,89,0.00,,,0.07,Wunderground v.1.15,2013-03-18 14:38:00,
2013-03-18 09:44:00,35.4,32.5,29.78,West,265,5.0,12.0,89,0.00,,,0.07,Wunderground v.1.15,2013-03-18 14:44:00,
2013-03-18 09:50:00,35.4,32.5,29.78,WNW,290,5.0,5.0,89,0.00,,,0.07,Wunderground v.1.15,2013-03-18 14:50:00,
2013-03-18 09:56:00,35.6,32.7,29.78,NW,307,5.0,6.0,89,0.00,,,0.08,Wunderground v.1.15,2013-03-18 14:56:00,
2013-03-18 10:02:00,35.7,32.8,29.79,NW,308,5.0,9.0,89,0.00,,,0.08,Wunderground v.1.15,2013-03-18 15:02:00,
2013-03-18 10:08:00,35.8,32.9,29.80,WNW,296,5.0,9.0,89,0.00,,,0.08,Wunderground v.1.15,2013-03-18 15:08:00,
2013-03-18 10:14:00,36.0,33.1,29.80,West,280,5.0,11.0,89,0.00,,,0.08,Wunderground v.1.15,2013-03-18 15:14:00,
2013-03-18 10:20:00,36.1,33.2,29.80,WSW,256,4.0,4.0,89,0.00,,,0.08,Wunderground v.1.15,2013-03-18 15:20:00,
2013-03-18 10:26:00,36.3,33.4,29.80,NW,309,4.0,4.0,89,0.00,,,0.08,Wunderground v.1.15,2013-03-18 15:26:00,
2013-03-18 10:32:00,36.5,33.6,29.80,WNW,292,4.0,4.0,89,0.00,,,0.08,Wunderground v.1.15,2013-03-18 15:32:00,
2013-03-18 10:38:00,36.7,33.8,29.80,WNW,302,4.0,6.0,89,0.00,,,0.08,Wunderground v.1.15,2013-03-18 15:38:00,
2013-03-18 10:44:00,37.0,34.1,29.80,NW,309,5.0,10.0,89,0.00,,,0.09,Wunderground v.1.15,2013-03-18 15:44:00,
2013-03-18 10:50:00,37.1,34.2,29.80,WNW,282,5.0,5.0,89,0.00,,,0.09,Wunderground v.1.15,2013-03-18 15:50:00,
2013-03-18 10:56:00,37.3,34.4,29.80,WSW,252,5.0,12.0,89,0.00,,,0.09,Wunderground v.1.15,2013-03-18 15:56:00,
2013-03-18 11:02:00,37.5,34.6,29.80,West,263,5.0,11.0,89,0.00,,,0.09,Wunderground v.1.15,2013-03-18 16:02:00,
2013-03-18 11:08:00,37.6,34.7,29.81,WNW,288,5.0,12.0,89,0.00,,,0.09,Wunderground v.1.15,2013-03-18 16:08:00,
2013-03-18 11:14:00,37.7,34.8,29.81,West,262,5.0,12.0,89,0.00,,,0.10,Wunderground v.1.15,2013-03-18 16:14:00,
2013-03-18 11:20:00,37.8,34.8,29.81,West,269,4.0,12.0,89,0.00,,,0.10,Wunderground v.1.15,2013-03-18 16:20:00,
2013-03-18 11:26:00,37.9,34.9,29.81,WNW,288,6.0,12.0,89,0.00,,,0.10,Wunderground v.1.15,2013-03-18 16:26:00,
2013-03-18 11:32:00,38.0,35.0,29.81,West,272,6.0,12.0,89,0.00,,,0.10,Wunderground v.1.15,2013-03-18 16:32:00,
2013-03-18 11:38:00,38.1,35.1,29.82,NW,309,5.0,12.0,89,0.00,,,0.10,Wunderground v.1.15,2013-03-18 16:38:00,
2013-03-18 11:44:00,38.2,35.2,29.81,NW,315,5.0,12.0,89,0.00,,,0.10,Wunderground v.1.15,2013-03-18 16:44:00,
2013-03-18 11:50:00,38.3,35.3,29.82,West,265,6.0,6.0,89,0.00,,,0.10,Wunderground v.1.15,2013-03-18 16:50:00,
2013-03-18 11:56:00,38.4,35.4,29.82,WNW,289,5.0,12.0,89,0.00,,,0.10,Wunderground v.1.15,2013-03-18 16:56:00,
2013-03-18 12:02:00,38.4,35.4,29.82,NW,323,6.0,12.0,89,0.00,,,0.10,Wunderground v.1.15,2013-03-18 17:02:00,
2013-03-18 12:08:00,38.5,35.5,29.83,WNW,290,7.0,13.0,89,0.00,,,0.10,Wunderground v.1.15,2013-03-18 17:08:00,
2013-03-18 12:14:00,38.5,35.3,29.83,West,261,8.0,13.0,88,0.00,,,0.10,Wunderground v.1.15,2013-03-18 17:14:00,
2013-03-18 12:20:00,38.7,35.5,29.83,WSW,251,7.0,7.0,88,0.00,,,0.11,Wunderground v.1.15,2013-03-18 17:20:00,
2013-03-18 12:26:00,38.8,35.6,29.83,NW,318,7.0,13.0,88,0.00,,,0.11,Wunderground v.1.15,2013-03-18 17:26:00,
2013-03-18 12:32:00,38.8,35.6,29.83,WNW,300,8.0,10.0,88,0.00,,,0.11,Wunderground v.1.15,2013-03-18 17:32:00,
2013-03-18 12:38:00,39.1,36.1,29.83,West,277,7.0,10.0,89,0.00,,,0.11,Wunderground v.1.15,2013-03-18 17:38:00,
2013-03-18 12:44:00,39.8,36.8,29.83,West,271,6.0,7.0,89,0.00,,,0.11,Wunderground v.1.15,2013-03-18 17:44:00,
2013-03-18 12:50:00,40.5,37.5,29.83,WSW,249,5.0,9.0,89,0.00,,,0.11,Wunderground v.1.15,2013-03-18 17:50:00,
2013-03-18 12:56:00,40.8,37.5,29.83,WNW,296,6.0,15.0,88,0.00,,,0.11,Wunderground v.1.15,2013-03-18 17:56:00,
2013-03-18 13:02:00,41.3,38.0,29.83,West,271,7.0,15.0,88,0.00,,,0.11,Wunderground v.1.15,2013-03-18 18:02:00,
2013-03-18 13:08:00,41.9,38.6,29.84,WNW,284,7.0,15.0,88,0.00,,,0.11,Wunderground v.1.15,2013-03-18 18:08:00,
2013-03-18 13:14:00,41.9,38.3,29.84,West,276,9.0,23.0,87,0.00,,,0.11,Wunderground v.1.15,2013-03-18 18:14:00,
2013-03-18 13:20:00,42.0,38.4,29.84,West,281,9.0,15.0,87,0.00,,,0.11,Wunderground v.1.15,2013-03-18 18:20:00,
2013-03-18 13:26:00,42.2,38.6,29.83,West,262,8.0,15.0,87,0.00,,,0.11,Wunderground v.1.15,2013-03-18 18:26:00,
2013-03-18 13:32:00,42.9,39.3,29.83,NNW,327,9.0,15.0,87,0.00,,,0.11,Wunderground v.1.15,2013-03-18 18:32:00,
2013-03-18 13:38:00,43.3,39.7,29.83,NW,312,8.0,15.0,87,0.00,,,0.11,Wunderground v.1.15,2013-03-18 18:38:00,
2013-03-18 13:44:00,43.6,40.0,29.83,NW,306,9.0,15.0,87,0.00,,,0.11,Wunderground v.1.15,2013-03-18 18:44:00,
2013-03-18 13:50:00,44.0,40.1,29.83,WNW,296,8.0,8.0,86,0.00,,,0.11,Wunderground v.1.15,2013-03-18 18:50:00,
2013-03-18 13:56:00,44.3,40.4,29.83,West,266,7.0,15.0,86,0.00,,,0.11,Wunderground v.1.15,2013-03-18 18:56:00,
2013-03-18 14:02:00,44.5,40.6,29.83,WNW,302,8.0,14.0,86,0.00,,,0.11,Wunderground v.1.15,2013-03-18 19:02:00,
2013-03-18 14:08:00,44.4,40.2,29.83,WNW,303,9.0,15.0,85,0.00,,,0.11,Wunderground v.1.15,2013-03-18 19:08:00,
2013-03-18 14:14:00,44.6,40.4,29.82,NNW,330,8.0,15.0,85,0.00,,,0.11,Wunderground v.1.15,2013-03-18 19:14:00,
2013-03-18 14:20:00,45.4,41.2,29.82,West,281,8.0,8.0,85,0.00,,,0.11,Wunderground v.1.15,2013-03-18 19:20:00,
2013-03-18 14:26:00,46.0,41.7,29.82,WNW,292,8.0,15.0,85,0.00,,,0.11,Wunderground v.1.15,2013-03-18 19:26:00,
2013-03-18 14:32:00,46.3,41.7,29.82,West,280,9.0,15.0,84,0.00,,,0.11,Wunderground v.1.15,2013-03-18 19:32:00,
2013-03-18 14:38:00,46.2,41.3,29.82,NW,322,8.0,15.0,83,0.00,,,0.11,Wunderground v.1.15,2013-03-18 19:38:00,
2013-03-18 14:44:00,46.4,41.5,29.82,West,268,8.0,15.0,83,0.00,,,0.11,Wunderground v.1.15,2013-03-18 19:44:00,
2013-03-18 14:50:00,46.9,42.0,29.82,West,261,10.0,15.0,83,0.00,,,0.11,Wunderground v.1.15,2013-03-18 19:50:00,
2013-03-18 14:56:00,47.4,42.2,29.82,WSW,253,8.0,15.0,82,0.00,,,0.11,Wunderground v.1.15,2013-03-18 19:56:00,
2013-03-18 15:02:00,47.6,42.1,29.82,NW,321,10.0,12.0,81,0.00,,,0.11,Wunderground v.1.15,2013-03-18 20:02:00,
2013-03-18 15:08:00,47.9,42.3,29.81,NW,309,11.0,13.0,81,0.00,,,0.11,Wunderground v.1.15,2013-03-18 20:08:00,
2013-03-18 15:14:00,48.2,42.3,29.82,West,279,10.0,13.0,80,0.00,,,0.11,Wunderground v.1.15,2013-03-18 20:14:00,
2013-03-18 15:20:00,48.4,42.2,29.82,WNW,298,10.0,10.0,79,0.00,,,0.11,Wunderground v.1.15,2013-03-18 20:20:00,
2013-03-18 15:26:00,48.7,42.1,29.82,WNW,295,10.0,14.0,78,0.00,,,0.11,Wunderground v.1.15,2013-03-18 20:26:00,
2013-03-18 15:32:00,48.8,42.2,29.82,NW,311,9.0,11.0,78,0.00,,,0.11,Wunderground v.1.15,2013-03-18 20:32:00,
2013-03-18 15:38:00,48.9,42.0,29.82,WNW,294,9.0,15.0,77,0.00,,,0.11,Wunderground v.1.15,2013-03-18 20:38:00,
2013-03-18 15:44:00,48.9,42.0,29.83,West,276,10.0,19.0,77,0.00,,,0.11,Wunderground v.1.15,2013-03-18 20:44:00,
2013-03-18 15:50:00,48.7,41.5,29.83,West,269,11.0,13.0,76,0.00,,,0.11,Wunderground v.1.15,2013-03-18 20:50:00,
2013-03-18 15:56:00,48.4,41.2,29.82,NNW,330,11.0,19.0,76,0.00,,,0.11,Wunderground v.1.15,2013-03-18 20:56:00,
2013-03-18 16:02:00,48.3,40.7,29.82,WNW,282,10.0,19.0,75,0.00,,,0.11,Wunderground v.1.15,2013-03-18 21:02:00,
2013-03-18 16:08:00,48.4,40.8,29.83,NW,325,9.0,19.0,75,0.00,,,0.11,Wunderground v.1.15,2013-03-18 21:08:00,
2013-03-18 16:14:00,48.4,40.8,29.83,WNW,286,9.0,19.0,75,0.00,,,0.11,Wunderground v.1.15,2013-03-18 21:14:00,
2013-03-18 16:20:00,48.5,40.6,29.83,WNW,284,9.0,9.0,74,0.00,,,0.11,Wunderground v.1.15,2013-03-18 21:20:00,
2013-03-18 16:26:00,48.7,40.8,29.82,West,277,7.0,19.0,74,0.00,,,0.11,Wunderground v.1.15,2013-03-18 21:26:00,
2013-03-18 16:32:00,48.9,41.0,29.83,NW,319,8.0,21.0,74,0.00,,,0.11,Wunderground v.1.15,2013-03-18 21:32:00,
2013-03-18 16:38:00,48.8,40.2,29.83,SW,222,12.0,21.0,72,0.00,,,0.11,Wunderground v.1.15,2013-03-18 21:38:00,
2013-03-18 16:44:00,48.8,40.2,29.83,WSW,241,11.0,19.0,72,0.00,,,0.11,Wunderground v.1.15,2013-03-18 21:44:00,
2013-03-18 16:50:00,48.8,39.8,29.83,West,259,10.0,10.0,71,0.00,,,0.11,Wunderground v.1.15,2013-03-18 21:50:00,
2013-03-18 16:56:00,49.0,40.4,29.83,NW,319,9.0,19.0,72,0.00,,,0.11,Wunderground v.1.15,2013-03-18 21:56:00,
2013-03-18 17:02:00,49.1,40.1,29.83,WNW,282,8.0,19.0,71,0.00,,,0.11,Wunderground v.1.15,2013-03-18 22:02:00,
2013-03-18 17:08:00,49.2,40.6,29.83,WNW,284,7.0,19.0,72,0.00,,,0.11,Wunderground v.1.15,2013-03-18 22:08:00,
2013-03-18 17:14:00,49.2,40.2,29.84,NNW,329,8.0,19.0,71,0.00,,,0.11,Wunderground v.1.15,2013-03-18 22:14:00,
2013-03-18 17:20:00,49.0,39.6,29.84,NW,309,9.0,19.0,70,0.00,,,0.11,Wunderground v.1.15,2013-03-18 22:20:00,
2013-03-18 17:26:00,48.7,39.0,29.84,WNW,300,11.0,19.0,69,0.00,,,0.11,Wunderground v.1.15,2013-03-18 22:26:00,
2013-03-18 17:32:00,48.5,38.8,29.84,West,277,11.0,19.0,69,0.00,,,0.11,Wunderground v.1.15,2013-03-18 22:32:00,
2013-03-18 17:38:00,48.5,38.8,29.85,West,263,10.0,19.0,69,0.00,,,0.11,Wunderground v.1.15,2013-03-18 22:38:00,
2013-03-18 17:44:00,48.5,38.4,29.85,NW,315,10.0,19.0,68,0.00,,,0.11,Wunderground v.1.15,2013-03-18 22:44:00,
2013-03-18 17:50:00,48.4,38.7,29.85,WNW,294,8.0,19.0,69,0.00,,,0.11,Wunderground v.1.15,2013-03-18 22:50:00,
2013-03-18 17:56:00,48.3,38.2,29.85,West,281,9.0,19.0,68,0.00,,,0.11,Wunderground v.1.15,2013-03-18 22:56:00,
2013-03-18 18:02:00,48.0,37.6,29.85,WSW,254,12.0,15.0,67,0.00,,,0.11,Wunderground v.1.15,2013-03-18 23:02:00,
2013-03-18 18:08:00,47.6,36.4,29.86,WNW,302,12.0,17.0,65,0.00,,,0.11,Wunderground v.1.15,2013-03-18 23:08:00,
2013-03-18 18:14:00,47.3,36.5,29.86,WSW,240,11.0,13.0,66,0.00,,,0.11,Wunderground v.1.15,2013-03-18 23:14:00,
2013-03-18 18:20:00,47.3,36.9,29.86,WNW,294,7.0,7.0,67,0.00,,,0.11,Wunderground v.1.15,2013-03-18 23:20:00,
2013-03-18 18:26:00,47.2,36.8,29.87,NW,305,6.0,9.0,67,0.00,,,0.11,Wunderground v.1.15,2013-03-18 23:26:00,
2013-03-18 18:32:00,47.2,36.8,29.87,WNW,283,6.0,6.0,67,0.00,,,0.11,Wunderground v.1.15,2013-03-18 23:32:00,
2013-03-18 18:38:00,47.0,36.6,29.88,NNW,332,6.0,11.0,67,0.00,,,0.11,Wunderground v.1.15,2013-03-18 23:38:00,
2013-03-18 18:44:00,46.6,35.8,29.88,West,259,8.0,10.0,66,0.00,,,0.11,Wunderground v.1.15,2013-03-18 23:44:00,
2013-03-18 18:50:00,46.0,35.3,29.88,WNW,302,8.0,8.0,66,0.00,,,0.11,Wunderground v.1.15,2013-03-18 23:50:00,
2013-03-18 18:56:00,45.6,34.9,29.89,NW,308,6.0,24.0,66,0.00,,,0.11,Wunderground v.1.15,2013-03-18 23:56:00,
2013-03-18 19:02:00,45.3,34.6,29.89,WNW,296,6.0,7.0,66,0.00,,,0.11,Wunderground v.1.15,2013-03-19 00:02:00,
2013-03-18 19:08:00,44.9,34.2,29.89,NW,323,5.0,24.0,66,0.00,,,0.11,Wunderground v.1.15,2013-03-19 00:08:00,
2013-03-18 19:14:00,44.5,33.8,29.90,NW,309,5.0,9.0,66,0.00,,,0.11,Wunderground v.1.15,2013-03-19 00:14:00,
2013-03-18 19:20:00,44.2,33.6,29.90,NW,326,6.0,24.0,66,0.00,,,0.11,Wunderground v.1.15,2013-03-19 00:20:00,
2013-03-18 19:26:00,43.9,33.3,29.91,West,268,5.0,24.0,66,0.00,,,0.11,Wunderground v.1.15,2013-03-19 00:26:00,
2013-03-18 19:32:00,43.5,32.9,29.91,WNW,292,4.0,24.0,66,0.00,,,0.11,Wunderground v.1.15,2013-03-19 00:32:00,
2013-03-18 19:38:00,43.2,32.6,29.91,NW,311,6.0,24.0,66,0.00,,,0.11,Wunderground v.1.15,2013-03-19 00:38:00,
2013-03-18 19:44:00,42.9,32.3,29.91,NW,306,6.0,24.0,66,0.00,,,0.11,Wunderground v.1.15,2013-03-19 00:44:00,
2013-03-18 19:50:00,42.6,32.0,29.92,NNW,338,6.0,6.0,66,0.00,,,0.11,Wunderground v.1.15,2013-03-19 00:50:00,
2013-03-18 19:56:00,42.4,31.5,29.92,WNW,295,8.0,24.0,65,0.00,,,0.11,Wunderground v.1.15,2013-03-19 00:56:00,
2013-03-18 20:02:00,42.1,31.6,29.93,NNW,333,9.0,24.0,66,0.00,,,0.11,Wunderground v.1.15,2013-03-19 01:02:00,
2013-03-18 20:08:00,41.8,31.3,29.93,NNW,331,5.0,24.0,66,0.00,,,0.11,Wunderground v.1.15,2013-03-19 01:08:00,
2013-03-18 20:14:00,41.4,30.5,29.93,WNW,300,5.0,24.0,65,0.00,,,0.11,Wunderground v.1.15,2013-03-19 01:14:00,
2013-03-18 20:20:00,41.0,30.1,29.93,NW,313,7.0,7.0,65,0.00,,,0.11,Wunderground v.1.15,2013-03-19 01:20:00,
2013-03-18 20:26:00,40.7,29.8,29.94,NW,317,6.0,24.0,65,0.00,,,0.11,Wunderground v.1.15,2013-03-19 01:26:00,
2013-03-18 20:32:00,40.3,29.5,29.94,NW,322,5.0,24.0,65,0.00,,,0.11,Wunderground v.1.15,2013-03-19 01:32:00,
2013-03-18 20:38:00,40.0,29.2,29.95,NW,313,5.0,24.0,65,0.00,,,0.11,Wunderground v.1.15,2013-03-19 01:38:00,
2013-03-18 20:44:00,39.6,28.8,29.95,NW,309,5.0,24.0,65,0.00,,,0.11,Wunderground v.1.15,2013-03-19 01:44:00,
2013-03-18 20:50:00,39.3,28.5,29.95,NNW,336,7.0,7.0,65,0.00,,,0.11,Wunderground v.1.15,2013-03-19 01:50:00,
2013-03-18 20:56:00,39.0,28.2,29.96,NW,325,6.0,24.0,65,0.00,,,0.11,Wunderground v.1.15,2013-03-19 01:56:00,
2013-03-18 21:02:00,38.8,28.0,29.96,NW,316,7.0,10.0,65,0.00,,,0.11,Wunderground v.1.15,2013-03-19 02:02:00,
2013-03-18 21:08:00,38.6,27.8,29.97,NW,316,8.0,10.0,65,0.00,,,0.11,Wunderground v.1.15,2013-03-19 02:08:00,
2013-03-18 21:14:00,38.5,27.7,29.97,NNW,332,7.0,8.0,65,0.00,,,0.11,Wunderground v.1.15,2013-03-19 02:14:00,
2013-03-18 21:20:00,38.2,27.1,29.98,WNW,294,7.0,7.0,64,0.00,,,0.11,Wunderground v.1.15,2013-03-19 02:20:00,
2013-03-18 21:26:00,38.0,26.9,29.98,WNW,290,7.0,9.0,64,0.00,,,0.11,Wunderground v.1.15,2013-03-19 02:26:00,
2013-03-18 21:32:00,37.8,26.7,29.98,NW,312,7.0,9.0,64,0.00,,,0.11,Wunderground v.1.15,2013-03-19 02:32:00,
2013-03-18 21:38:00,37.6,26.5,29.99,NW,321,7.0,9.0,64,0.00,,,0.11,Wunderground v.1.15,2013-03-19 02:38:00,
2013-03-18 21:44:00,37.4,26.3,29.99,NW,311,7.0,12.0,64,0.00,,,0.11,Wunderground v.1.15,2013-03-19 02:44:00,
2013-03-18 21:50:00,37.2,26.1,29.99,NW,304,7.0,7.0,64,0.00,,,0.11,Wunderground v.1.15,2013-03-19 02:50:00,
2013-03-18 21:56:00,37.0,25.9,30.00,WNW,300,7.0,13.0,64,0.00,,,0.11,Wunderground v.1.15,2013-03-19 02:56:00,
2013-03-18 22:02:00,36.9,25.9,30.00,NW,307,7.0,9.0,64,0.00,,,0.11,Wunderground v.1.15,2013-03-19 03:02:00,
2013-03-18 22:08:00,36.7,25.7,30.01,NW,315,7.0,13.0,64,0.00,,,0.11,Wunderground v.1.15,2013-03-19 03:08:00,
2013-03-18 22:14:00,36.5,25.5,30.02,NW,315,6.0,13.0,64,0.00,,,0.11,Wunderground v.1.15,2013-03-19 03:14:00,
2013-03-18 22:20:00,36.3,25.3,30.02,NNW,340,7.0,7.0,64,0.00,,,0.11,Wunderground v.1.15,2013-03-19 03:20:00,
2013-03-18 22:26:00,36.1,24.7,30.02,NW,308,7.0,14.0,63,0.00,,,0.11,Wunderground v.1.15,2013-03-19 03:26:00,
2013-03-18 22:32:00,35.9,24.5,30.02,NW,319,8.0,13.0,63,0.00,,,0.11,Wunderground v.1.15,2013-03-19 03:32:00,
2013-03-18 22:38:00,35.8,24.4,30.02,NW,309,7.0,13.0,63,0.00,,,0.11,Wunderground v.1.15,2013-03-19 03:38:00,
2013-03-18 22:44:00,35.7,24.3,30.02,WNW,298,8.0,13.0,63,0.00,,,0.11,Wunderground v.1.15,2013-03-19 03:44:00,
2013-03-18 22:50:00,35.6,24.2,30.02,NW,319,8.0,13.0,63,0.00,,,0.11,Wunderground v.1.15,2013-03-19 03:50:00,
2013-03-18 22:56:00,35.5,24.1,30.03,NW,321,7.0,13.0,63,0.00,,,0.11,Wunderground v.1.15,2013-03-19 03:56:00,
2013-03-18 23:00:00,35.3,24.0,30.03,NW,313,7.0,7.0,63,0.00,,,0.11,Wunderground v.1.15,2013-03-19 04:00:00,
2013-03-18 23:04:00,35.2,23.9,30.03,NW,315,7.0,13.0,63,0.00,,,0.11,Wunderground v.1.15,2013-03-19 04:04:00,
2013-03-18 23:10:00,35.2,23.9,30.03,NW,316,7.0,7.0,63,0.00,,,0.11,Wunderground v.1.15,2013-03-19 04:10:00,
2013-03-18 23:14:00,35.1,23.8,30.03,NNW,327,7.0,13.0,63,0.00,,,0.11,Wunderground v.1.15,2013-03-19 04:14:00,
2013-03-18 23:16:00,35.1,23.8,30.03,NNW,338,7.0,13.0,63,0.00,,,0.11,Wunderground v.1.15,2013-03-19 04:16:00,
2013-03-18 23:22:00,34.9,23.2,30.03,NNW,336,6.0,13.0,62,0.00,,,0.11,Wunderground v.1.15,2013-03-19 04:22:00,
2013-03-18 23:28:00,34.7,23.0,30.03,NW,322,5.0,13.0,62,0.00,,,0.11,Wunderground v.1.15,2013-03-19 04:28:00,
2013-03-18 23:34:00,34.5,23.2,30.03,NW,311,5.0,13.0,63,0.00,,,0.11,Wunderground v.1.15,2013-03-19 04:34:00,
2013-03-18 23:40:00,34.3,23.0,30.03,NW,319,5.0,13.0,63,0.00,,,0.11,Wunderground v.1.15,2013-03-19 04:40:00,
2013-03-18 23:46:00,34.2,22.9,30.04,WNW,303,5.0,13.0,63,0.00,,,0.11,Wunderground v.1.15,2013-03-19 04:46:00,
2013-03-18 23:52:00,34.1,22.8,30.03,NW,308,5.0,13.0,63,0.00,,,0.11,Wunderground v.1.15,2013-03-19 04:52:00,
2013-03-18 23:58:00,33.9,22.6,30.03,NW,311,4.0,13.0,63,0.00,,,0.11,Wunderground v.1.15,2013-03-19 04:58:00,